Weather Roundup
Issued by NWS

Home | Current Version | Previous Version | Text Only | Print | Product List | Glossary On
Versions: 1 2 3 4 5 6 7 8 9 10 11 12 13 14 15 16 17 18 19 20 21 22 23 24 25 26 27 28 29 30 31 32 33 34 35 36 37 38 39 40 41 42 43 44 45 46 47 48 49 50
256
NZUS93 KARX 211510
HRRWXR

CURRENT HOURLY OBSERVATIONS ACROSS
MUCH OF THE UPPER MISSISSIPPI VALLEY
NATIONAL WEATHER SERVICE LA CROSSE WI
1000 AM CDT MON AUG 21 2017


...SOUTHEAST MINNESOTA...


CITY           SKY/WX    TMP DP  RH WIND       PRES   REMARKS
ROCHESTER      SUNNY     73  68  84 NE7       30.03F
ROCHESTER/MAYO FAIR      76  67  74 E5        30.02F
WINONA         MOSUNNY   73  68  83 E3        30.03F
AUSTIN         MOSUNNY   73  66  78 E9        30.01F
ALBERT LEA     SUNNY     79  66  65 E8        30.00F
DODGE CENTER   CLOUDY    73  66  78 E7        30.00F
PRESTON        SUNNY     72  66  82 NE6       30.05F
OWATONNA       CLOUDY    73  68  83 E5        29.99F
FARIBAULT      CLOUDY    72  66  83 NE5       29.99F
$$

...ELSEWHERE IN MINNESOTA...


CITY           SKY/WX    TMP DP  RH WIND       PRES   REMARKS
MINNEAPOLIS    CLOUDY    73  63  70 E6        29.99F
INTNL FALLS    CLOUDY    63  52  67 SW5       30.04F
DULUTH         PTSUNNY   65  56  72 SE3       30.05F
RED WING       CLOUDY    68  64  88 E3        30.00F
REDWOOD FALLS  MOSUNNY   73  66  78 SE7       29.96F
MANKATO        SUNNY     73  66  78 VRB3      29.99F
WORTHINGTON    CLOUDY    68  66  94 S10G17    30.01R FOG
FAIRMONT       SUNNY     74  64  71 S8        29.99F
$$

...SOUTHWEST WISCONSIN...


CITY           SKY/WX    TMP DP  RH WIND       PRES   REMARKS
LA CROSSE      CLOUDY    77  68  73 SE3       30.02F
PRAIRIE DU CHI CLOUDY    71  66  83 E3        30.03R
BOSCOBEL       CLOUDY    70  66  87 VRB3      30.04F
LONE ROCK      CLOUDY    69  68  96 SE3       30.06F
PLATTEVILLE    CLOUDY    70  70 100 E10       30.03F
FORT MC COY    CLOUDY    70  66  85 SE3       30.06S
CAMP DOUGLAS   PTSUNNY   70  68  94 S9        30.06R
MAUSTON-NEW LI CLOUDY    71  67  86 CALM      30.07F
VIROQUA        FAIR      68  68 100 CALM      30.05F
WIS DELLS      CLOUDY    72  66  83 CALM      30.09S
$$

...ELSEWHERE IN WISCONSIN...


CITY           SKY/WX    TMP DP  RH WIND       PRES   REMARKS
MILWAUKEE      CLOUDY    79  69  71 W9        30.06R
MADISON        CLOUDY    71  67  87 SW6       30.09R
GREEN BAY      LGT RAIN  72  71  97 SW3       30.06S
EAU CLAIRE     TSTM      66  63  90 NE3       30.02F
BLACK RVR FLS  FAIR      75  70  84 S3        30.03S
MEDFORD        CLOUDY    68  61  78 E7        30.07F
WAUSAU         LGT RAIN  67  63  87 E6        30.05F
WIS RAPIDS     CLOUDY    71  69  93 E5        30.06F
MARSHFIELD     CLOUDY    73  67  81 E6        30.05F
RICE LAKE      CLOUDY    69  60  73 E6        30.05F
$$

...NORTHEAST IOWA...


CITY           SKY/WX    TMP DP  RH WIND       PRES   REMARKS
WATERLOO       CLOUDY    71  62  73 NE7       30.00R
DUBUQUE        CLOUDY    70  65  84 E9        30.01F
DECORAH        PTSUNNY   72  64  78 CALM      30.03R
MASON CITY     PTSUNNY   71  63  75 E6        30.03R
CHARLES CITY   PTSUNNY   72  66  83 E6        30.03S
OELWEIN        CLOUDY    70  64  83 NE7       30.03R
$$

...ELSEWHERE IN IOWA...


CITY           SKY/WX    TMP DP  RH WIND       PRES   REMARKS
DES MOINES     TSTM      67  65  93 SW21      30.10R FOG
IOWA CITY      CLOUDY    71  66  84 SE16      30.02F
FORT DODGE     PTSUNNY   66  61  82 SW6       30.01R
MARSHALLTOWN   CLOUDY    70  65  84 E6        29.96R
CEDAR RAPIDS   CLOUDY    71  67  87 S10       30.02R
$$

...NORTHERN ILLINOIS...


CITY           SKY/WX    TMP DP  RH WIND       PRES   REMARKS
CHICAGO-OHARE  PTSUNNY   78  70  76 W13       30.07S
CHICAGO-MIDWAY CLOUDY    80  71  74 W10       30.06S
MOLINE         CLOUDY    72  68  87 S13       30.10R
ROCKFORD       CLOUDY    76  70  82 NW8       30.10S
PEORIA         LGT RAIN  69  69 100 W7        30.16R FOG
$$

NOTE: "FAIR" INDICATES FEW OR NO CLOUDS BELOW 12,000 FEET WITH NO
SIGNIFICANT WEATHER AND/OR OBSTRUCTIONS TO VISIBILITY. WIND
SPEEDS ARE IN MILES-PER-HOUR.




USA.gov is the U.S. government's official web portal to all federal, state and local government web resources and services.